Weather History for Milford, UT

Change the Weather History Date:

Friday, July 19, 2013

  Actual Average Record
Temperature  
Mean Temperature 80 °F -  
Max Temperature 99 °F 92 °F 105 °F (1998)
Min Temperature 60 °F 56 °F 50 °F (2012)
Cooling Degree Days 14    
Growing Degree Days 30 (Base 50)    
Moisture  
Dew Point 43 °F    
Average Humidity 28    
Maximum Humidity 54    
Minimum Humidity 6    
Precipitation  
Precipitation 0.00 in - - ()
Sea Level Pressure  
Sea Level Pressure 29.85 in    
Wind  
Wind Speed 6 mph (South)    
Max Wind Speed 21 mph    
Max Gust Speed 29 mph    
Visibility 10 miles    
Events      
Averages and records for this station are not official NWS values.
T = Trace of Precipitation, MM = Missing Value Source: NWS Daily Summary

Daily Weather History Graph

Daily Weather History Graph

Search for Another Location

Airport:

Trip Planner

Search our weather history database for the weather conditions in past years. The results will help you decide how hot, cold, wet, or windy it might be!

Date:

Astronomy

Jul. 19, 2013 Rise Set
Actual Time 6:23 AM MDT 8:52 PM MDT
Civil Twilight 5:53 AM MDT 9:23 PM MDT
Nautical Twilight 5:15 AM MDT 10:00 PM MDT
Astronomical Twilight 4:33 AM MDT 10:42 PM MDT
Moon 5:59 PM MDT (7/19) 3:08 AM MDT (7/19)
Length of Visible Light 15h 30m
Length of Day
14h 29m
Waxing Gibbous, 87% of the Moon is Illuminated
Jul 19
Waxing Gibbous
Jul 22
Full
Jul 29
Last Quarter
Aug 6
New
Aug 14
First Quarter

Hourly Weather History & Observations

Time (MDT) Temp. Dew Point Humidity Pressure Visibility Wind Dir Wind Speed Gust Speed Precip Events Conditions
12:52 AM 71.1 °F 46.9 °F 42% 29.88 in 10.0 mi Calm Calm - N/A   Clear
1:52 AM 68.0 °F 44.1 °F 42% 29.89 in 10.0 mi SW 5.8 mph - N/A   Clear
2:52 AM 66.9 °F 45.0 °F 45% 29.88 in 10.0 mi SSE 3.5 mph - N/A   Clear
3:52 AM 66.0 °F 43.0 °F 43% 29.88 in 10.0 mi Calm Calm - N/A   Clear
4:52 AM 63.0 °F 46.0 °F 54% 29.89 in 10.0 mi SSW 5.8 mph - N/A   Clear
5:52 AM 62.1 °F 45.0 °F 53% 29.90 in 10.0 mi SSE 4.6 mph - N/A   Clear
6:52 AM 63.0 °F 46.0 °F 54% 29.91 in 10.0 mi WSW 8.1 mph - N/A   Clear
7:52 AM 68.0 °F 46.9 °F 47% 29.92 in 10.0 mi South 5.8 mph - N/A   Clear
8:52 AM 73.0 °F 46.9 °F 39% 29.92 in 10.0 mi South 4.6 mph - N/A   Clear
9:52 AM 80.1 °F 46.9 °F 31% 29.91 in 10.0 mi South 5.8 mph - N/A   Clear
10:52 AM 86.0 °F 44.1 °F 23% 29.90 in 10.0 mi SSW 4.6 mph - N/A   Clear
11:52 AM 91.9 °F 42.1 °F 18% 29.89 in 10.0 mi Variable 5.8 mph - N/A   Clear
12:52 PM 93.9 °F 39.9 °F 15% 29.87 in 10.0 mi NNW 9.2 mph 20.7 mph N/A   Clear
1:52 PM 96.1 °F 37.9 °F 13% 29.83 in 10.0 mi NNE 8.1 mph 23.0 mph N/A   Clear
2:52 PM 96.1 °F 37.0 °F 13% 29.81 in 10.0 mi NE 6.9 mph 18.4 mph N/A   Mostly Cloudy
3:52 PM 90.0 °F 43.0 °F 19% 29.83 in 10.0 mi South 13.8 mph - N/A   Scattered Clouds
4:52 PM 95.0 °F 37.9 °F 14% 29.79 in 10.0 mi SE 20.7 mph 28.8 mph N/A   Clear
5:52 PM 93.9 °F 39.0 °F 15% 29.78 in 10.0 mi SE 15.0 mph 20.7 mph N/A   Clear
6:52 PM 93.0 °F 41.0 °F 16% 29.78 in 10.0 mi SSW 13.8 mph - N/A   Clear
7:52 PM 88.0 °F 39.9 °F 18% 29.80 in 10.0 mi SSW 18.4 mph - N/A   Clear
8:52 PM 84.9 °F 44.1 °F 24% 29.80 in 10.0 mi SW 11.5 mph - N/A   Clear
9:52 PM 80.1 °F 46.9 °F 31% 29.83 in 10.0 mi South 8.1 mph - N/A   Clear
10:52 PM 80.1 °F 46.9 °F 31% 29.83 in 10.0 mi South 9.2 mph - N/A   Clear
11:52 PM 77.0 °F 46.0 °F 33% 29.82 in 10.0 mi SW 11.5 mph - N/A   Clear